Dewpoint
59 60 61 60 61 61 61 61 60 60 60 60 59 58 58 58 54 38 35 46 52 57 53 39 35 36 37 36 35 34 24 24 25 25 26 28 25 21 21 20 20 20 20 21 22
59 59 60 60 59 61 61 60 60 60 60 60 59 58 58 58 32 32 47 56 56 55 40 35 32 33 32 34 32 30 26 27 26 26 26 27 26 23 21 20 18 18 19 20 21
59 60 60 60 59 60 61 60 61 60 60 59 58 58 58 57 29 31 49 55 54 49 42 39 32 31 31 31 31 30 27 26 25 25 23 22 21 23 23 17 17 17 18 19 20
59 59 59 58 59 60 61 60 60 60 60 59 59 59 57 43 24 31 47 49 47 39 35 32 30 29 30 28 29 26 27 27 27 26 23 20 19 16 16 16 19 20 20 19 19
59 58 58 58 58 60 61 60 60 60 60 60 59 58 45 27 28 33 38 36 35 35 32 30 29 29 27 27 27 25 24 25 24 21 20 18 16 15 16 17 18 19 20 19 20
59 58 58 58 59 61 61 60 60 60 59 58 57 55 30 26 33 32 31 34 34 32 31 31 30 29 29 28 27 25 23 22 23 23 21 18 16 15 14 14 15 17 18 19 20
59 58 59 60 60 61 61 60 60 59 58 58 57 38 27 27 32 29 34 34 34 33 31 31 32 29 27 25 25 24 22 22 23 22 19 23 15 11 12 12 13 14 17 20 21
59 58 59 59 60 61 61 60 58 57 57 58 55 30 27 33 31 29 29 32 32 33 32 31 29 29 27 25 23 22 23 21 21 23 23 24 17 12 13 13 13 14 16 18 20
59 58 58 58 58 58 58 58 57 57 57 55 37 28 27 33 29 29 30 30 30 28 27 27 26 26 25 23 23 24 21 22 21 19 23 22 15 13 15 13 13 13 15 16 18
57 59 56 56 56 56 57 56 52 51 42 40 31 22 27 28 31 29 30 31 30 27 23 25 23 21 21 20 15 15 20 20 22 18 18 17 13 14 15 14 13 14 15 16 17
55 57 58 56 57 57 53 41 28 25 30 29 29 26 27 28 29 28 30 27 27 23 19 23 18 18 19 21 20 19 17 19 20 19 17 15 13 14 15 14 13 14 15 17 18
54 54 56 58 58 54 42 29 34 34 26 30 28 29 30 28 24 26 28 22 24 19 21 17 18 22 22 22 19 18 16 18 20 17 17 15 14 15 15 15 15 15 17 18 19
54 52 53 54 52 46 42 43 50 39 24 26 28 27 26 27 26 26 27 26 22 20 19 18 21 22 19 19 16 15 12 16 15 18 16 15 15 15 15 16 16 17 18 18 20
53 51 51 50 42 43 42 51 52 38 19 23 25 26 27 27 25 29 29 26 24 21 22 21 22 20 19 18 19 14 20 16 17 16 14 16 11 14 14 14 13 14 16 18 20
52 50 50 46 41 35 47 51 49 26 10 23 25 28 28 26 27 26 30 25 23 22 22 21 22 20 18 20 20 15 20 20 20 18 17 14 15 14 13 12 11 14 16 18 20
50 48 48 47 46 50 52 46 31 17 14 21 26 25 24 27 28 28 27 27 26 22 23 23 25 24 22 22 21 20 15 19 20 18 13 16 15 13 13 12 11 13 15 17 20
52 50 46 46 43 51 48 32 22 15 25 22 24 25 26 25 26 27 25 25 22 17 18 21 22 24 24 19 21 13 8 4 5 4 2 15 14 12 13 12 13 14 14 16 21
49 51 49 52 54 49 35 25 17 22 22 26 25 26 24 26 26 26 25 22 25 24 20 17 12 23 22 20 18 17 11 3 1 1 1 11 5 10 13 14 14 14 15 17 22
45 42 45 46 48 40 30 20 20 23 25 24 24 23 24 26 25 25 25 25 26 26 20 16 16 23 20 19 20 14 8 17 4 6 2 5 10 13 14 9 13 14 15 18 23
40 41 43 47 46 37 28 26 28 31 29 26 21 24 22 24 23 24 24 28 26 26 28 23 15 21 21 21 18 14 14 3 -0 -2 -1 1 1 6 11 8 12 12 16 20 23
41 37 43 47 42 32 25 29 30 33 31 26 25 25 25 25 26 25 25 28 27 24 21 22 20 16 18 17 16 15 8 5 4 3 -2 -3 1 9 7 11 12 13 18 22 22
41 36 47 43 31 34 28 30 32 31 32 30 29 28 26 26 27 27 26 27 25 24 18 18 17 12 13 14 11 15 8 5 -2 -4 0 2 -2 8 8 12 14 15 19 22 22
42 42 45 41 27 30 34 33 33 30 31 29 29 29 29 28 26 29 28 27 21 16 16 16 14 8 11 15 10 9 8 7 5 4 -2 -4 -1 12 9 12 12 16 21 22 21
40 36 38 39 37 32 31 31 30 33 31 31 30 29 27 27 30 29 29 30 21 25 24 20 15 12 8 8 8 8 8 7 5 -1 -1 -1 -1 4 6 11 12 18 21 21 20
38 35 38 33 32 32 32 31 29 29 31 31 29 28 27 25 26 27 30 27 21 24 18 16 15 11 11 10 10 9 7 7 5 3 -0 0 3 5 9 12 15 20 21 20 19
37 36 37 35 34 32 31 30 29 29 29 28 28 27 26 26 25 25 28 25 23 17 17 17 13 10 5 9 9 5 5 6 7 7 6 6 5 9 11 13 16 20 21 20 18
43 40 38 35 33 30 30 30 30 29 28 28 29 27 25 23 23 23 22 21 20 18 17 15 10 4 8 1 -0 3 3 5 6 6 5 2 5 9 11 14 20 22 21 20 13
Wind_Speed
3 4 5 5 4 5 7 9 8 7 7 6 4 2 2 5 3 7 13 7 7 12 9 5 5 4 6 6 7 1 7 12 6 5 9 3 7 18 21 28 31 18 19 13 13
3 4 4 3 5 6 8 9 8 8 7 6 4 1 4 7 11 21 7 6 6 9 4 7 9 8 7 6 6 7 12 7 7 11 16 16 18 11 13 20 22 21 18 15 17
3 3 3 3 6 6 8 9 8 7 6 5 2 2 4 4 7 10 11 7 5 5 2 3 2 7 13 11 7 8 9 14 20 25 26 29 27 7 4 19 17 17 16 16 19
3 3 3 5 7 7 8 8 8 6 4 2 1 3 5 3 5 7 14 9 6 5 0 5 4 5 7 10 7 13 12 12 11 11 11 17 16 28 23 14 13 14 14 17 21
4 3 4 6 7 6 8 8 7 5 2 1 4 6 2 12 8 8 11 6 4 4 9 5 10 8 9 14 25 24 18 21 25 26 25 25 21 19 19 13 12 13 16 19 20
5 5 6 8 9 7 7 7 5 3 0 3 5 7 2 21 6 10 7 3 10 8 9 8 8 14 12 9 9 22 30 26 17 16 14 20 16 5 11 9 12 15 17 18 20
7 9 9 11 9 8 8 7 4 2 0 3 6 2 23 11 4 7 6 5 7 7 6 8 4 4 10 23 26 29 25 18 6 6 21 9 18 11 7 9 13 13 14 15 17
8 11 12 12 11 9 7 5 4 2 1 4 5 5 8 1 8 17 7 7 10 9 8 6 10 13 6 23 12 8 8 5 10 6 1 9 4 6 4 8 12 12 13 14 17
8 11 12 11 9 7 6 3 2 1 2 4 2 4 6 1 7 9 10 4 4 7 10 6 6 10 13 12 7 5 1 4 6 8 5 4 10 9 5 7 11 12 14 14 14
6 10 10 9 7 7 5 3 1 1 2 1 3 5 7 5 5 7 5 5 3 2 2 7 6 9 6 6 3 2 4 4 3 6 11 12 15 10 6 7 10 11 13 16 17
4 7 9 10 8 6 4 2 4 8 15 9 6 7 4 5 3 12 6 3 2 7 6 9 10 10 7 6 3 3 4 4 4 3 3 8 13 10 6 7 9 11 13 15 17
2 5 8 9 7 3 1 3 4 5 13 8 6 5 4 3 4 22 16 2 4 5 2 7 15 6 4 4 4 4 3 2 3 4 2 10 9 8 5 5 7 9 11 14 17
2 4 7 10 7 4 7 7 1 3 5 6 5 6 4 7 8 15 13 4 12 16 14 11 5 6 6 8 4 2 2 2 7 7 3 11 7 12 7 4 3 6 8 11 16
3 4 7 8 3 2 4 2 1 2 3 10 7 7 7 1 5 6 9 3 4 5 6 9 5 5 4 5 5 5 1 10 7 10 4 10 4 13 10 5 1 5 10 14 15
4 5 7 5 9 3 3 1 1 1 1 6 4 4 8 6 4 14 5 8 8 4 2 3 4 8 6 4 6 4 5 0 7 6 4 8 6 6 10 7 3 8 12 14 14
4 6 6 4 4 2 0 2 2 3 3 2 4 5 2 9 5 7 6 9 2 7 13 5 1 3 5 4 3 6 1 4 5 4 5 4 4 7 7 4 3 9 12 15 16
10 12 6 2 3 2 2 2 3 3 0 2 3 3 6 8 6 10 8 15 5 1 3 2 4 2 5 4 2 12 6 4 3 4 6 5 6 2 8 3 6 11 15 16 15
8 5 10 7 3 2 1 3 2 1 1 1 1 5 4 6 5 6 3 5 11 4 3 4 2 6 9 5 4 6 6 5 8 10 12 3 5 4 7 4 4 9 13 13 15
3 3 4 8 7 3 2 1 3 3 3 5 3 1 2 2 2 3 6 3 6 9 3 3 1 2 4 6 3 3 4 3 6 4 5 0 2 5 6 1 8 12 16 16 15
1 3 4 10 6 1 2 4 2 1 2 1 1 1 1 2 1 2 2 2 1 5 4 1 2 1 1 2 7 3 2 3 2 8 12 7 5 2 8 5 12 15 17 17 15
1 4 3 8 2 4 2 4 3 1 1 1 2 3 2 1 2 2 2 2 0 1 2 0 1 2 2 1 2 1 1 2 3 3 6 11 8 7 5 6 12 15 15 15 14
2 3 5 4 3 3 4 4 2 3 2 2 3 4 2 2 2 2 2 2 1 0 1 1 1 4 1 3 2 1 1 2 4 2 5 6 6 10 6 8 9 15 15 15 11
3 3 2 2 4 4 3 3 3 3 2 2 2 2 2 2 1 2 2 2 1 1 1 1 1 5 2 3 3 3 3 2 1 3 12 6 7 7 4 9 13 16 17 14 13
3 5 2 4 2 8 7 5 4 2 3 3 4 2 3 2 3 4 3 2 1 1 4 1 2 4 8 6 2 5 6 7 7 6 5 15 18 2 11 13 16 14 14 13 15
4 2 1 6 4 7 4 5 7 4 2 1 3 1 3 2 2 2 3 3 1 1 1 0 3 4 11 8 5 8 10 10 15 14 9 7 9 15 7 12 14 12 11 13 17
4 5 4 4 6 10 1 5 7 5 3 3 3 5 2 1 1 2 6 5 2 3 1 1 2 3 5 1 4 9 12 13 14 15 18 20 16 2 8 10 14 14 10 15 16
2 1 3 1 5 4 5 8 8 10 3 3 5 5 4 2 4 5 6 6 4 3 4 1 1 3 5 3 11 9 7 12 5 7 7 9 5 5 10 13 13 8 8 14 14
Wind_Direction
53 91 100 85 106 136 142 145 145 152 141 144 148 145 14 345 266 89 52 343 314 316 316 297 9 22 65 66 47 281 108 92 83 99 133 130 84 70 76 73 65 69 62 44 30
44 90 107 101 133 139 133 132 135 139 140 139 138 107 3 355 66 56 353 325 327 331 357 36 57 54 72 51 41 73 91 60 50 96 111 84 85 90 86 63 60 59 55 45 39
47 87 84 110 129 117 130 131 131 131 136 137 132 2 346 318 71 22 350 329 328 338 23 26 31 68 72 62 39 31 85 100 83 101 99 92 74 80 78 53 50 51 42 40 40
41 56 104 114 109 130 130 130 129 129 132 131 306 324 314 226 73 354 343 332 338 341 35 53 78 74 79 78 69 98 56 92 101 106 94 79 88 74 72 83 66 60 53 46 40
38 69 90 114 123 126 133 133 125 131 152 306 327 326 263 87 60 349 334 341 353 17 44 57 72 82 96 105 89 87 88 88 104 98 95 100 84 85 70 71 70 66 58 49 43
57 83 109 126 121 132 138 135 138 139 93 331 319 307 102 76 341 337 341 5 32 45 50 47 78 95 77 45 50 115 111 115 111 100 99 96 68 71 61 80 78 65 53 47 41
82 97 102 109 125 136 140 142 135 142 19 330 329 10 63 40 7 17 32 35 27 38 65 46 63 78 99 95 119 122 114 122 129 111 134 98 51 77 81 82 68 62 56 46 38
98 104 107 116 126 129 128 126 140 157 316 309 328 52 75 5 32 29 6 67 57 61 71 67 83 85 75 125 143 140 154 157 58 175 323 201 126 99 85 88 70 57 50 42 36
108 115 119 123 133 128 116 142 197 128 320 317 9 51 68 72 23 359 22 37 79 70 61 65 67 88 134 154 152 181 178 135 133 22 201 212 148 136 121 98 75 56 47 38 29
94 125 125 135 140 125 156 210 198 307 295 216 74 115 40 11 346 344 356 17 39 32 51 39 67 113 89 229 311 154 161 113 178 59 87 115 132 132 117 90 69 52 41 31 22
88 139 145 148 145 165 191 206 132 74 44 59 60 73 30 347 36 18 353 318 34 57 73 35 82 65 16 355 13 106 124 137 131 125 79 129 142 141 120 85 60 42 30 20 15
59 149 166 173 169 175 84 81 75 126 82 50 64 71 43 338 48 15 4 53 33 86 47 100 60 18 15 34 136 133 127 91 123 134 212 159 163 159 157 87 55 30 22 12 2
358 146 165 172 151 65 83 105 346 299 86 36 34 36 2 20 44 359 7 38 67 67 68 81 23 2 36 63 136 136 314 229 304 155 97 163 207 191 178 161 56 32 10 4 4
13 167 167 154 114 114 72 134 310 311 114 11 6 33 356 58 58 17 15 14 59 95 73 67 37 43 65 63 339 252 75 301 214 189 311 201 296 194 184 176 297 356 0 356 354
22 157 164 247 129 120 109 7 305 230 149 360 20 342 35 68 334 21 1 63 62 62 284 69 37 30 37 359 346 354 340 178 185 215 242 204 259 102 176 226 305 2 355 351 349
55 119 137 68 69 73 8 301 235 223 90 52 0 356 65 32 39 328 31 51 80 69 66 86 62 25 349 300 294 329 234 111 134 215 257 102 259 140 183 201 334 348 343 349 350
65 70 64 7 104 344 308 269 258 45 207 72 23 29 73 22 40 26 44 47 32 141 53 111 49 16 9 315 213 349 316 308 270 278 314 156 233 53 147 92 5 339 338 345 345
64 70 61 60 19 321 250 268 65 81 100 92 145 70 75 4 42 30 53 60 43 21 71 8 173 16 356 37 329 11 4 13 316 318 308 171 245 118 147 64 358 342 343 345 343
330 48 59 7 357 303 232 44 80 139 125 153 126 103 91 72 50 72 50 49 20 8 32 341 170 118 63 38 329 23 18 342 279 263 270 215 119 157 178 340 338 340 349 351 345
78 86 45 334 338 287 80 98 94 71 111 147 136 8 110 38 127 80 74 32 43 14 316 70 282 83 46 212 53 23 98 288 334 318 323 294 286 335 184 332 339 347 351 350 344
54 97 13 339 286 55 98 98 127 74 18 39 131 123 100 116 66 94 101 131 56 3 1 283 270 149 215 20 349 232 240 62 289 265 295 312 348 108 100 1 343 347 351 345 350
117 111 352 316 80 44 104 115 133 117 52 79 85 90 104 128 104 109 123 79 166 304 358 16 285 272 223 120 250 283 295 261 299 357 255 283 300 138 61 5 347 347 354 351 355
102 101 8 334 143 111 127 97 77 120 71 96 97 50 83 115 123 120 141 127 33 128 96 148 244 308 208 170 171 247 192 170 39 270 249 282 343 173 328 338 355 354 349 350 350
144 123 57 63 42 135 144 138 115 45 93 81 119 106 124 104 37 159 158 157 66 91 83 204 275 258 290 306 1 249 223 210 231 259 304 259 294 274 333 340 347 350 347 344 346
20 123 41 161 147 131 104 131 141 146 83 113 104 136 153 137 162 167 150 158 158 129 43 172 273 263 269 277 251 267 260 233 226 246 257 318 290 318 341 338 346 341 344 347 345
158 145 89 79 117 130 128 168 157 143 156 181 169 142 118 141 307 218 178 203 199 162 204 35 251 293 283 212 247 272 259 250 245 257 260 274 289 83 332 328 338 345 343 343 341
143 108 124 70 146 165 163 159 172 139 60 49 136 127 119 106 98 84 75 77 110 163 171 217 215 313 276 289 304 279 250 209 202 223 252 271 344 340 324 337 338 335 347 339 338